TimeCST,TemperatureF,Dew PointF,Humidity,Sea Level PressureIn,VisibilityMPH,Wind Direction,Wind SpeedMPH,Gust SpeedMPH,PrecipitationIn,Events,Conditions,WindDirDegrees,DateUTC
12:52 AM,8.1,3.9,83,30.14,10.0,Calm,Calm,-,N/A,,Clear,0,2013-01-16 06:52:00
1:52 AM,15.1,7.0,70,30.12,10.0,Calm,Calm,-,N/A,,Clear,0,2013-01-16 07:52:00
2:52 AM,15.1,7.0,70,30.10,10.0,SSW,5.8,-,N/A,,Clear,200,2013-01-16 08:52:00
3:52 AM,17.1,9.0,71,30.07,10.0,SSW,8.1,-,N/A,,Clear,210,2013-01-16 09:52:00
4:52 AM,17.1,9.0,71,30.05,10.0,WSW,8.1,-,N/A,,Clear,240,2013-01-16 10:52:00
5:52 AM,17.1,9.0,71,30.03,10.0,WSW,6.9,-,N/A,,Clear,240,2013-01-16 11:52:00
6:52 AM,19.0,9.0,65,29.99,10.0,SW,10.4,-,N/A,,Clear,220,2013-01-16 12:52:00
7:52 AM,19.0,10.0,68,30.00,10.0,WSW,6.9,-,N/A,,Clear,240,2013-01-16 13:52:00
8:52 AM,23.0,12.9,65,30.00,10.0,WSW,8.1,-,N/A,,Clear,240,2013-01-16 14:52:00
9:52 AM,27.0,15.1,61,29.96,10.0,WSW,12.7,-,N/A,,Clear,240,2013-01-16 15:52:00
10:52 AM,30.9,18.0,59,29.94,10.0,SW,15.0,21.9,N/A,,Partly Cloudy,220,2013-01-16 16:52:00
11:52 AM,33.1,19.9,59,29.91,10.0,SW,15.0,20.7,N/A,,Mostly Cloudy,220,2013-01-16 17:52:00
12:25 PM,33.8,21.2,60,29.86,10.0,SW,11.5,23.0,N/A,,Mostly Cloudy,220,2013-01-16 18:25:00
12:52 PM,36.0,21.0,55,29.89,10.0,SW,15.0,25.3,N/A,,Overcast,230,2013-01-16 18:52:00
1:52 PM,37.0,23.0,57,29.89,10.0,WSW,10.4,20.7,N/A,,Overcast,250,2013-01-16 19:52:00
2:03 PM,37.4,24.8,60,29.87,10.0,WSW,12.7,-,N/A,,Overcast,250,2013-01-16 20:03:00
2:27 PM,37.4,24.8,60,29.87,10.0,WSW,11.5,-,N/A,,Overcast,240,2013-01-16 20:27:00
2:52 PM,37.0,25.0,62,29.91,10.0,SW,11.5,-,N/A,,Overcast,230,2013-01-16 20:52:00
3:35 PM,37.4,26.6,65,29.91,10.0,SW,9.2,-,N/A,,Overcast,230,2013-01-16 21:35:00
3:52 PM,37.9,27.0,65,29.94,10.0,WSW,10.4,-,N/A,,Overcast,250,2013-01-16 21:52:00
4:52 PM,37.0,27.0,67,29.96,10.0,WSW,8.1,-,N/A,,Mostly Cloudy,240,2013-01-16 22:52:00
5:52 PM,35.1,28.0,76,29.98,10.0,Calm,Calm,-,N/A,,Mostly Cloudy,0,2013-01-16 23:52:00
6:52 PM,36.0,28.9,76,30.01,10.0,West,4.6,-,N/A,,Overcast,270,2013-01-17 00:52:00
7:52 PM,37.0,28.0,70,30.03,10.0,WSW,5.8,-,N/A,,Overcast,250,2013-01-17 01:52:00
8:52 PM,37.0,28.0,70,30.04,10.0,WSW,4.6,-,N/A,,Overcast,240,2013-01-17 02:52:00
9:08 PM,35.6,28.4,75,30.02,10.0,WSW,6.9,-,N/A,,Overcast,250,2013-01-17 03:08:00
9:52 PM,36.0,28.9,76,30.05,10.0,West,5.8,-,N/A,,Overcast,260,2013-01-17 03:52:00
10:08 PM,35.6,28.4,75,30.03,10.0,West,4.6,-,N/A,,Overcast,280,2013-01-17 04:08:00
10:20 PM,35.6,28.4,75,30.04,10.0,WNW,3.5,-,N/A,,Overcast,290,2013-01-17 04:20:00
10:52 PM,33.1,28.0,82,30.07,10.0,WSW,5.8,-,N/A,,Mostly Cloudy,240,2013-01-17 04:52:00
11:35 PM,37.4,32.0,81,30.08,10.0,NW,12.7,20.7,N/A,,Overcast,310,2013-01-17 05:35:00
11:52 PM,37.0,30.9,79,30.11,10.0,NNW,11.5,-,N/A,,Overcast,330,2013-01-17 05:52:00